Weather History for KPMV - May, 2014

Change the Weather History Date:

Friday, May 16, 2014

  Actual Average (KOFF) Record (KOFF)
Temperature  
Mean Temperature 45 °F -  
Max Temperature 56 °F 71 °F 87 °F (1997)
Min Temperature 34 °F 51 °F 30 °F (2014)
Degree Days  
Heating Degree Days 20    
Moisture  
Dew Point 28 °F    
Average Humidity 51    
Maximum Humidity 77    
Minimum Humidity 30    
Precipitation  
Precipitation 0.00 in - - ()
Sea Level Pressure  
Sea Level Pressure 30.11 in    
Wind  
Wind Speed 4 mph (WNW)    
Max Wind Speed 9 mph    
Max Gust Speed -    
Visibility 10 miles    
Events      
Averages and records for this station are not official NWS values.
T = Trace of Precipitation, MM = Missing Value Source: NWS Daily Summary

Daily Weather History Graph

Daily Weather History Graph

Search for Another Location

Airport or City:

Trip Planner

Search our weather history database for the weather conditions in past years. The results will help you decide how hot, cold, wet, or windy it might be!

Date:

Astronomy

May. 16, 2014 Rise Set
Actual Time 6:05 AM CDT 8:35 PM CDT
Civil Twilight 5:33 AM CDT 9:07 PM CDT
Nautical Twilight 4:54 AM CDT 9:46 PM CDT
Astronomical Twilight 4:11 AM CDT 10:30 PM CDT
Moon 10:43 PM CDT (5/16) 7:47 AM CDT (5/16)
Length of Visible Light 15h 33m
Length of Day
14h 30m
Waning Gibbous, 95% of the Moon is Illuminated
May 16
Waning Gibbous
May 21
Last Quarter
May 28
New
Jun 5
First Quarter
Jun 12
Full

Hourly Weather History & Observations

Time (CDT) Temp. Windchill Dew Point Humidity Pressure Visibility Wind Dir Wind Speed Gust Speed Precip Events Conditions
12:15 AM 41.0 °F 39.0 °F 27.0 °F 57% 30.16 in 10.0 mi NNW 3.5 mph - N/A   Clear
12:35 AM 39.2 °F 37.0 °F 27.5 °F 63% 30.16 in 10.0 mi NNW 3.5 mph - N/A   Clear
12:55 AM 39.0 °F 36.8 °F 27.3 °F 63% 30.16 in 10.0 mi NNW 3.5 mph - N/A   Clear
1:15 AM 38.5 °F 35.0 °F 27.3 °F 64% 30.16 in 10.0 mi WNW 4.6 mph - N/A   Clear
1:35 AM 38.3 °F - 27.1 °F 64% 30.15 in 10.0 mi Calm Calm - N/A   Clear
1:55 AM 38.5 °F - 26.6 °F 62% 30.15 in 10.0 mi Calm Calm - N/A   Clear
2:15 AM 38.5 °F - 26.6 °F 62% 30.14 in 10.0 mi Calm Calm - N/A   Clear
2:35 AM 37.0 °F 34.5 °F 27.0 °F 67% 30.14 in 10.0 mi West 3.5 mph - N/A   Clear
2:55 AM 37.2 °F 34.7 °F 27.3 °F 67% 30.13 in 10.0 mi WNW 3.5 mph - N/A   Clear
3:15 AM 36.1 °F 33.5 °F 27.5 °F 71% 30.13 in 10.0 mi West 3.5 mph - N/A   Clear
3:35 AM 34.5 °F 31.6 °F 26.6 °F 73% 30.13 in 10.0 mi West 3.5 mph - N/A   Clear
3:55 AM 36.1 °F 32.3 °F 26.4 °F 68% 30.13 in 10.0 mi West 4.6 mph - N/A   Clear
4:15 AM 34.0 °F 29.8 °F 26.2 °F 73% 30.13 in 10.0 mi West 4.6 mph - N/A   Clear
4:35 AM 34.9 °F 29.9 °F 26.6 °F 72% 30.13 in 10.0 mi West 5.8 mph - N/A   Clear
4:55 AM 35.8 °F 30.1 °F 26.4 °F 69% 30.13 in 10.0 mi West 6.9 mph - N/A   Clear
5:15 AM 36.1 °F 30.6 °F 26.2 °F 67% 30.13 in 10.0 mi West 6.9 mph - N/A   Clear
5:35 AM 35.2 °F 31.2 °F 26.4 °F 70% 30.13 in 10.0 mi West 4.6 mph - N/A   Clear
5:55 AM 34.7 °F 29.6 °F 26.6 °F 72% 30.13 in 10.0 mi West 5.8 mph - N/A   Clear
6:15 AM 34.3 °F 29.2 °F 27.0 °F 74% 30.13 in 10.0 mi West 5.8 mph - N/A   Clear
6:35 AM 34.2 °F 28.2 °F 27.5 °F 77% 30.13 in 10.0 mi West 6.9 mph - N/A   Clear
6:55 AM 35.1 °F 29.3 °F 28.2 °F 76% 30.13 in 10.0 mi WNW 6.9 mph - N/A   Clear
7:15 AM 36.9 °F 32.2 °F 29.3 °F 74% 30.13 in 10.0 mi West 5.8 mph - N/A   Clear
7:35 AM 38.5 °F 36.1 °F 30.4 °F 73% 30.13 in 10.0 mi WNW 3.5 mph - N/A   Clear
7:55 AM 39.4 °F 36.1 °F 31.3 °F 73% 30.14 in 10.0 mi WNW 4.6 mph - N/A   Clear
8:15 AM 41.5 °F 37.8 °F 31.8 °F 68% 30.14 in 10.0 mi WNW 5.8 mph - N/A   Clear
8:35 AM 43.7 °F 41.1 °F 31.8 °F 63% 30.14 in 10.0 mi WNW 4.6 mph - N/A   Clear
8:55 AM 45.1 °F 42.8 °F 31.1 °F 58% 30.14 in 10.0 mi NNW 4.6 mph - N/A   Clear
9:15 AM 46.8 °F - 28.9 °F 50% 30.14 in 10.0 mi NW 4.6 mph - N/A   Clear
9:35 AM 47.3 °F - 28.6 °F 48% 30.13 in 10.0 mi North 3.5 mph - N/A   Clear
9:55 AM 48.4 °F - 28.9 °F 47% 30.13 in 10.0 mi NNE 3.5 mph - N/A   Clear
10:15 AM 47.5 °F - 26.2 °F 44% 30.12 in 10.0 mi West 4.6 mph - N/A   Clear
10:35 AM 49.1 °F - 26.4 °F 41% 30.12 in 10.0 mi Calm Calm - N/A   Clear
10:55 AM 50.4 °F - 26.4 °F 39% 30.12 in 10.0 mi Calm Calm - N/A   Clear
11:15 AM 51.3 °F - 26.8 °F 39% 30.11 in 10.0 mi NNW 4.6 mph - N/A   Clear
11:35 AM 51.3 °F - 25.5 °F 37% 30.11 in 10.0 mi North 3.5 mph - N/A   Clear
11:55 AM 52.5 °F - 24.1 °F 33% 30.11 in 10.0 mi NW 4.6 mph - N/A   Clear
12:15 PM 52.3 °F - 25.3 °F 35% 30.10 in 10.0 mi Calm Calm - N/A   Clear
12:35 PM 52.9 °F - 25.0 °F 34% 30.10 in 10.0 mi Calm Calm - N/A   Clear
12:55 PM 53.4 °F - 26.2 °F 35% 30.10 in 10.0 mi Calm Calm - N/A   Scattered Clouds
1:15 PM 53.4 °F - 24.4 °F 33% 30.10 in 10.0 mi Calm Calm - N/A   Scattered Clouds
1:35 PM 53.6 °F - 25.9 °F 34% 30.10 in 10.0 mi NW 3.5 mph - N/A   Scattered Clouds
1:55 PM 52.9 °F - 26.1 °F 35% 30.09 in 10.0 mi Calm Calm - N/A   Mostly Cloudy
2:15 PM 53.8 °F - 25.2 °F 33% 30.09 in 10.0 mi Calm Calm - N/A   Mostly Cloudy
2:35 PM 54.3 °F - 26.4 °F 34% 30.09 in 10.0 mi NW 6.9 mph - N/A   Scattered Clouds
2:55 PM 54.5 °F - 25.0 °F 32% 30.09 in 10.0 mi West 9.2 mph - N/A   Scattered Clouds
3:15 PM 54.7 °F - 25.2 °F 32% 30.08 in 10.0 mi WSW 6.9 mph - N/A   Scattered Clouds
3:35 PM 54.5 °F - 24.6 °F 31% 30.07 in 10.0 mi West 4.6 mph - N/A   Scattered Clouds
3:55 PM 55.4 °F - 24.8 °F 31% 30.07 in 10.0 mi West 3.5 mph - N/A   Overcast
4:15 PM 54.9 °F - 23.5 °F 30% 30.07 in 10.0 mi Calm Calm - N/A   Mostly Cloudy
4:35 PM 55.0 °F - 24.8 °F 31% 30.07 in 10.0 mi West 6.9 mph - N/A   Mostly Cloudy
4:55 PM 55.4 °F - 24.6 °F 30% 30.07 in 10.0 mi West 4.6 mph - N/A   Mostly Cloudy
5:15 PM 55.0 °F - 25.0 °F 31% 30.07 in 10.0 mi Calm Calm - N/A   Mostly Cloudy
5:35 PM 54.9 °F - 25.7 °F 32% 30.07 in 10.0 mi West 4.6 mph - N/A   Mostly Cloudy
5:55 PM 56.1 °F - 25.0 °F 30% 30.07 in 10.0 mi Calm Calm - N/A   Mostly Cloudy
6:15 PM 55.4 °F - 25.5 °F 32% 30.07 in 10.0 mi NNW 3.5 mph - N/A   Scattered Clouds
6:35 PM 55.2 °F - 26.1 °F 33% 30.07 in 10.0 mi WNW 5.8 mph - N/A   Scattered Clouds
6:55 PM 54.5 °F - 27.5 °F 35% 30.07 in 10.0 mi West 6.9 mph - N/A   Scattered Clouds
7:15 PM 53.8 °F - 28.9 °F 39% 30.08 in 10.0 mi West 4.6 mph - N/A   Scattered Clouds
7:35 PM 53.8 °F - 28.9 °F 39% 30.08 in 10.0 mi WNW 5.8 mph - N/A   Scattered Clouds
7:55 PM 53.1 °F - 30.4 °F 42% 30.09 in 10.0 mi WNW 4.6 mph - N/A   Scattered Clouds
8:15 PM 52.0 °F - 31.3 °F 45% 30.10 in 10.0 mi Calm Calm - N/A   Clear
8:35 PM 51.3 °F - 32.0 °F 48% 30.10 in 10.0 mi West 3.5 mph - N/A   Scattered Clouds
8:55 PM 50.2 °F - 32.2 °F 50% 30.11 in 10.0 mi West 5.8 mph - N/A   Clear
9:15 PM 49.3 °F - 32.2 °F 52% 30.11 in 10.0 mi West 4.6 mph - N/A   Clear
9:35 PM 48.7 °F - 32.0 °F 52% 30.12 in 10.0 mi WSW 4.6 mph - N/A   Clear
9:55 PM 48.2 °F - 32.0 °F 54% 30.13 in 10.0 mi WSW 3.5 mph - N/A   Clear
10:15 PM 47.8 °F - 32.0 °F 54% 30.13 in 10.0 mi WSW 5.8 mph - N/A   Clear
10:35 PM 47.3 °F - 31.8 °F 55% 30.13 in 10.0 mi WSW 4.6 mph - N/A   Clear
10:55 PM 46.9 °F - 31.8 °F 56% 30.13 in 10.0 mi WSW 4.6 mph - N/A   Clear
11:15 PM 46.8 °F - 32.0 °F 57% 30.13 in 10.0 mi WSW 6.9 mph - N/A   Scattered Clouds
11:35 PM 46.4 °F 43.5 °F 32.7 °F 59% 30.14 in 10.0 mi WSW 5.8 mph - N/A   Scattered Clouds
11:55 PM 45.1 °F 42.8 °F 33.4 °F 64% 30.14 in 10.0 mi WSW 4.6 mph - N/A   Clear